Погода в Церматте

Швейцария     46°01′21″N   7°45′02″E
темп.,
°C
ветер,
м/с
пор.,
м/с
влажн.,
%
обл.,
%
осадки,
мм/ч
давл.,
гПа
погр.,
м
14 мая, пт
пт1423:00−10сз439549 0.0 101424
02:00−13ссз228315 0.0 101613
05:00−13с126861 0.0 101511
08:00−6в115697 0.0 101039
11:00−4вюв116362 0.0 1009896
14:00−4ссв2183100 0.6 1008421
17:00−3с3291100 1.3 1008485
20:00−4сз3396100 3.7 1010257
15 мая, сб
сб1523:00−8ссз339986 0.4 1016100
02:00−10ссз3399100 0.5 101839
05:00−9ю117899 0.0 101412
08:00−5ю3375100 0.0 1011125
11:00−3ю3372100 0.0 1010493
14:00−3ю3498100 0.4 1009424
17:00−2юз2297100 2.9 1008291
20:00−3з2298100 7.6 1008166
16 мая, вс
вс1623:00−3з2398100 3.7 100979
02:00−6сз3399100 4.1 101273
05:00−6сз339899 0.0 101172
08:00−4з3383100 0.0 1009121
11:00−2зюз3395100 0.0 1008388
14:00−2юз43100100 0.3 1008431
17:00−2з3395100 0.6 1009376
20:00−4зсз229415 0.9 101016
17 мая, пн
пн1723:00−9зсз22855 0.0 101512
02:00−10сз339562 0.0 101619
05:00−9сз339873 0.0 101654
08:00−7сз339772 0.0 1015128
11:00−4зсз338422 0.0 1012529
14:00−3зсз339297 0.1 1012758
17:00−3сз338560 0.3 1012724
20:00−6сз339557 0.8 101587
18 мая, вт
вт1823:00−6сз339696 0.8 101771
02:00−10сз439873 2.0 102122
05:00−10сз339978 0.0 102284
08:00−7сз449446 0.1 1021225
11:00−4сз448978 0.3 1020699
14:00−4сз339165 0.6 1021701
17:00−4сз338242 0.1 1021684
20:00−6сз3293100 0.2 102429